Location: Bacharowice
(49.9333°N, 19.5833°E)
Time: 07:03:39
(UTC+00:00)

Cosmos 1908 Rocket - Pass Details

Date: 30 September 2021
Orbit: 605 x 633 km, 82.5° (Epoch: 27 October)

Event Time Altitude Azimuth Distance (km) Brightness Sun altitude
Rises 18:06:45 0° 225° (SW) 2,918 7.4 -17.5°
Reaches altitude 10° 18:09:23 10° 240° (WSW) 2,012 6.8 -17.9°
Maximum altitude 18:12:56 23° 292° (WNW) 1,353 6.2 -18.5°
Drops below altitude 10° 18:16:30 10° 345° (NNW) 2,014 6.6 -19.0°
Sets 18:19:09 0° 1° (N) 2,921 7.3 -19.4°
